DW9840 Weather Reports


Display with metric or nautical units.
time (UTC)temp
F
wind
direction
speed
MPH
gust
MPH
rain 1hr
in
rain 24hr
in
rain mn
in
humidity
%
barometer
mb
20260906061512 60 133 0.0 0.0 0.00 0.00 0.00 3 1013.4
20260906060049 60 132 0.0 0.0 0.00 0.00 0.00 3 1013.3
20260906054601 59 132 0.0 0.0 0.00 0.00 0.00 3 1013.3
20260906053029 59 132 0.0 0.0 0.00 0.00 0.00 3 1013.3
20260906051532 61 133 0.0 0.0 0.00 0.00 0.00 3 1013.3
20260906050028 61 236 0.0 0.0 0.00 0.00 0.00 3 1013.4
20260906044515 62 236 0.0 0.0 0.00 0.00 0.00 3 1013.4
20260906043011 63 236 0.0 0.0 0.00 0.00 0.00 3 1013.3
20260906041507 63 146 0.0 0.0 0.00 0.00 0.00 3 1013.2
20260906040003 64 146 0.0 0.0 0.00 0.00 0.00 3 1013.1
20260906034600 64 191 0.0 1.0 0.00 0.00 0.00 10 1013.0
20260906033037 64 146 0.0 0.0 0.00 0.00 0.00 23 1013.0
20260906031600 64 190 0.0 0.0 0.00 0.00 0.00 36 1012.9
20260906030012 64 224 0.0 3.0 0.00 0.00 0.00 49 1012.8
20260906024526 65 190 0.0 6.0 0.00 0.00 0.00 58 1012.8
20260906023058 66 214 0.0 2.0 0.00 0.00 0.00 61 1012.9
20260906021544 68 215 0.0 2.0 0.00 0.00 0.00 61 1012.9
20260906020039 70 132 0.0 6.0 0.00 0.00 0.00 58 1012.9
20260906014535 71 161 0.0 3.0 0.00 0.00 0.00 54 1012.8
20260906013032 73 152 0.0 2.0 0.00 0.00 0.00 51 1012.8
20260906011526 75 208 0.0 2.0 0.00 0.00 0.00 47 1012.9
20260906010039 76 159 0.0 1.0 0.00 0.00 0.00 43 1012.9
20260906004516 76 208 0.0 0.0 0.00 0.00 0.00 42 1012.8
20260906003054 75 197 0.0 5.0 0.00 0.00 0.00 44 1012.8
20260906001550 76 229 0.0 6.0 0.00 0.00 0.00 39 1012.8
20260906000032 77 202 0.0 2.0 0.00 0.00 0.00 41 1012.7
20260905234532 78 225 0.0 2.0 0.00 0.00 0.00 41 1012.6
20260905233017 77 221 0.0 6.0 0.00 0.00 0.00 41 1012.6
20260905231512 77 298 0.0 6.0 0.00 0.00 0.00 40 1012.7
20260905230013 78 277 0.0 2.0 0.00 0.00 0.00 41 1013.0
20260905224510 78 245 0.0 6.0 0.00 0.00 0.00 43 1013.1
20260905223058 77 217 1.0 10.0 0.00 0.00 0.00 43 1013.2
20260905221554 77 217 0.0 7.0 0.00 0.00 0.00 41 1013.3
20260905220049 77 223 0.0 7.0 0.00 0.00 0.00 41 1013.3
20260905214545 77 194 0.0 6.0 0.00 0.00 0.00 40 1013.4
20260905213045 77 215 0.0 4.0 0.00 0.00 0.00 42 1013.4
20260905211541 78 176 0.0 10.0 0.00 0.00 0.00 42 1013.4
20260905210016 80 143 0.0 6.0 0.00 0.00 0.00 42 1013.4
20260905204558 80 218 0.0 1.0 0.00 0.00 0.00 43 1013.2
20260905203050 80 217 0.0 0.0 0.00 0.00 0.00 44 1013.2
20260905201533 79 236 0.0 1.0 0.00 0.00 0.00 40 1013.3
20260905200022 79 212 0.0 0.0 0.00 0.00 0.00 44 1013.4
20260905194501 78 214 0.0 0.0 0.00 0.00 0.00 46 1013.5
20260905193059 77 187 0.0 0.0 0.00 0.00 0.00 49 1013.6
20260905191535 77 240 0.0 0.0 0.00 0.00 0.00 50 1013.9
20260905190032 75 253 0.0 0.0 0.00 0.00 0.00 52 1014.0
20260905184512 75 269 0.0 0.0 0.00 0.00 0.00 52 1014.1
20260905183007 73 264 0.0 0.0 0.00 0.00 0.00 53 1014.1
20260905181545 71 255 0.0 0.0 0.00 0.00 0.00 54 1014.2
20260905180042 70 278 0.0 0.0 0.00 0.00 0.00 54 1014.1
20260905174519 68 233 0.0 0.0 0.00 0.00 0.00 52 1014.2
20260905173039 67 183 0.0 0.0 0.00 0.00 0.00 52 1014.3
20260905171559 67 278 0.0 0.0 0.00 0.00 0.00 51 1014.2
20260905170054 67 208 0.0 0.0 0.00 0.00 0.00 47 1014.3
20260905164550 67 184 0.0 0.0 0.00 0.00 0.00 27 1014.2
20260905163045 66 186 0.0 0.0 0.00 0.00 0.00 5 1014.1
20260905161540 66 173 0.0 0.0 0.00 0.00 0.00 3 1014.1
20260905160036 64 158 0.0 0.0 0.00 0.00 0.00 3 1014.2
20260905154534 62 158 0.0 0.0 0.00 0.00 0.00 3 1014.2
20260905153027 60 150 0.0 0.0 0.00 0.00 0.00 3 1014.1
20260905151506 58 144 0.0 0.0 0.00 0.00 0.00 3 1013.9
20260905150002 57 144 0.0 0.0 0.00 0.00 0.00 3 1013.7
20260905144540 54 144 0.0 0.0 0.00 0.00 0.00 3 1013.8
20260905143045 0 0.0 0.0 0.00 0.00 0.00 1013.8
20260905141524 0 0.0 0.0 0.00 0.00 0.00 1013.7
20260905140009 0 0.0 0.0 0.00 0.00 0.00 1013.6
20260905134557 0 0.0 0.0 0.00 0.00 0.00 1013.5
20260905133054 0 0.0 0.0 0.00 0.00 0.00 1013.4
20260905131527 0 0.0 0.0 0.00 0.00 0.00 1013.4
20260905130021 0 0.0 0.0 0.00 0.00 0.00 1013.2
20260905124504 0 0.0 0.0 0.00 0.00 0.00 1013.2
20260905123057 0 0.0 0.0 0.00 0.00 0.00 1013.2
20260905121535 0 0.0 0.0 0.00 0.00 0.00 1013.2
20260905120032 0 0.0 0.0 0.00 0.00 0.00 1013.3
20260905114510 0 0.0 0.0 0.00 0.00 0.00 1013.3
20260905113005 0 0.0 0.0 0.00 0.00 0.00 1013.4
20260905111543 0 0.0 0.0 0.00 0.00 0.00 1013.4
20260905110047 54 143 0.0 0.0 0.00 0.00 0.00 3 1013.4
20260905104517 54 144 0.0 0.0 0.00 0.00 0.00 3 1013.4
20260905103013 55 143 0.0 0.0 0.00 0.00 0.00 3 1013.4
20260905101604 55 144 0.0 0.0 0.00 0.00 0.00 3 1013.4
20260905100048 55 143 0.0 0.0 0.00 0.00 0.00 3 1013.5
20260905094527 55 143 0.0 0.0 0.00 0.00 0.00 3 1013.5
20260905093021 55 144 0.0 0.0 0.00 0.00 0.00 3 1013.6
20260905091607 56 144 0.0 0.0 0.00 0.00 0.00 3 1013.6
20260905090058 56 143 0.0 0.0 0.00 0.00 0.00 3 1013.7
20260905084536 57 144 0.0 0.0 0.00 0.00 0.00 3 1013.7
20260905083030 57 143 0.0 0.0 0.00 0.00 0.00 3 1013.7
20260905081509 58 144 0.0 0.0 0.00 0.00 0.00 3 1013.7
20260905080005 58 143 0.0 0.0 0.00 0.00 0.00 3 1013.7
20260905074544 59 144 0.0 0.0 0.00 0.00 0.00 3 1013.8
20260905073040 59 144 0.0 0.0 0.00 0.00 0.00 3 1013.7
20260905071518 59 144 0.0 0.0 0.00 0.00 0.00 3 1013.7
20260905070013 60 143 0.0 0.0 0.00 0.00 0.00 3 1013.7
20260905064551 60 143 0.0 0.0 0.00 0.00 0.00 3 1013.6
20260905063055 61 144 0.0 0.0 0.00 0.00 0.00 3 1013.5